SCP
0 0 0 0 0 0 0 0 0 0 0 0 0 0 0 0 -0 0 0 -0 0 0 -0 -0 0 0 0 0 0 0 -0 0 0 0 0 0 0 0 0 0 0 0 0 0
0 0 0 0 0 0 0 0 0 0 0 0 0 0 0 0 0 0 0 0 0 0 -0 -0 -0 0 0 0 0 0 0 0 0 0 0 0 0 0 0 0 0 0 0 0
0 0 0 0 0 0 0 0 0 0 0 0 0 0 0 0 -0 -0 0 0 0 0 0 -0 -0 0 0 0 0 0 0 0 0 0 0 0 0 0 0 0 0 0 0 0
0 0 0 0 0 0 0 0 0 0 0 0 0 0 0 0 -0 0 0 -0 0 0 0 0 0 0 0 0 0 0 0 0 0 0 0 0 0 0 0 0 0 0 0 0
0 0 0 0 0 0 0 0 0 0 0 0 0 0 0 0 -0 0 0 -0 0 0 0 0 0 0 0 0 0 0 0 0 0 0 0 0 0 0 0 0 0 0 0 0
0 0 0 0 0 0 0 0 0 0 0 0 0 0 0 0 0 -0 0 0 0 0 0 0 0 0 0 0 0 0 0 0 0 0 0 0 0 0 0 0 0 0 0 0
0 0 0 0 0 0 0 0 0 0 0 -0 0 0 -0 -0 0 0 -0 -0 -0 0 0 0 0 0 0 0 0 0 0 0 0 0 0 0 0 0 0 0 0 0 0 0
-0 0 0 0 0 -0 0 0 0 0 0 -0 -0 -0 -0 -0 0 0 0 -0 -0 0 0 0 0 0 0 0 0 0 0 0 0 0 0 0 0 0 0 0 0 0 0 0
-0 -0 -0 -0 -0 0 -0 -0 -0 -0 -0 -0 -0 -0 -0 0 0 0 0 0 0 0 0 0 0 0 0 0 0 0 0 0 0 0 0 0 0 0 0 0 0 0 0 0
-0 -0 -0 -0 -0 -0 0 -0 -0 -0 -0 -0 -0 -0 0 0 0 -0 0 0 0 0 0 0 0 0 0 0 0 0 0 0 0 0 0 0 0 0 0 0 0 0 0 0
0 -0 -0 -0 -0 -0 -0 -0 -0 -0 -0 0 0 -0 0 0 0 0 -0 0 0 0 0 0 0 0 0 0 0 0 0 0 0 0 0 0 0 0 0 0 0 0 0 0
-0 -0 -0 -0 -0 -0 0 0 -0 -0 -0 0 -0 -0 -0 -0 0 0 0 0 0 0 0 0 0 0 0 0 0 0 0 0 0 0 0 0 0 0 0 0 0 0 0 0
-0 -0 -0 -0 -0 -0 -0 0 -0 -0 -0 0 0 0 0 0 0 0 0 0 0 0 0 0 0 0 0 0 0 0 0 0 0 0 0 0 0 0 0 0 0 0 0 0
-0 0 -0 -0 -0 -0 0 -0 -0 -0 -0 0 0 0 0 0 0 0 -0 0 0 0 0 0 0 0 0 0 0 0 0 0 0 0 0 0 0 0 0 0 0 0 0 0
0 -0 -0 -0 -0 0 0 -0 -0 -0 0 0 0 -0 0 0 0 0 0 0 0 0 0 0 0 0 0 0 0 0 0 0 0 0 0 0 0 0 -0 0 0 0 0 0
0 -0 -0 -0 -0 -0 0 0 -0 0 -0 0 0 0 0 0 0 -0 0 0 0 0 0 0 0 0 0 0 0 0 0 0 0 0 0 0 -0 0 0 0 0 0 0 0
-0 -0 -0 -0 -0 0 0 0 0 -0 0 0 0 0 0 0 0 0 0 0 0 0 0 0 0 0 0 0 0 0 0 0 0 0 0 0 0 0 0 0 0 0 0 0
-0 -0 -0 -0 0 0 -0 -0 0 0 0 0 0 0 0 0 0 0 0 0 0 0 0 0 0 0 0 0 0 0 0 0 0 0 0 0 0 0 0 0 0 0 0 0
-0 -0 -0 0 -0 -0 -0 -0 0 0 0 0 0 0 0 0 0 0 0 0 0 0 0 0 0 0 0 0 0 0 0 0 0 0 0 0 -0 -0 0 0 0 0 0 0
-0 0 -0 -0 -0 -0 0 0 0 0 0 0 0 0 0 0 0 0 0 0 0 0 0 0 0 0 0 0 0 0 0 0 0 0 0 -0 -0 0 0 0 0 0 0 0
-0 0 0 -0 -0 0 0 0 0 0 0 0 0 0 0 0 0 0 0 0 0 0 0 0 0 0 0 0 0 0 0 0 0 0 0 0 0 0 0 0 0 0 0 0
-0 -0 -0 -0 0 0 0 0 0 0 0 0 0 0 0 0 0 -0 -0 0 0 0 0 0 0 0 0 0 0 0 0 0 0 -0 -0 -0 -0 0 0 0 0 0 0 0
-0 0 -0 0 0 0 0 0 0 0 0 0 0 -0 0 -0 0 0 0 0 0 0 0 0 0 0 0 -0 -0 -0 -0 -0 -0 -0 -0 -0 -0 -0 0 0 0 -0 0 0
0 0 0 0 0 0 0 0 0 0 0 0 0 -0 -0 -0 0 0 0 0 0 0 0 0 0 0 0 -0 -0 -0 -0 -0 -0 -0 -0 -0 -0 -0 -0 -0 -0 -0 -0 -0
0 0 0 0 0 0 0 0 0 -0 0 0 0 0 -0 -0 -0 -0 0 0 0 0 0 0 0 0 -0 -0 -0 -0 -0 -0 -0 -0 -0 -0 -0 -0 -0 -0 -0 -0 -0 -0
0 0 0 0 0 0 0 0 0 -0 0 0 0 0 0 -0 -0 0 0 0 0 0 0 0 -0 0 0 0 -0 -0 -0 -0 -0 -0 -0 -0 -0 -0 -0 -0 -0 -0 -0 -0
0 0 0 0 0 0 0 0 -0 -0 -0 0 -0 0 0 0 0 0 0 0 0 0 0 0 0 0 0 0 -0 -0 -0 -0 -0 -0 -0 -0 -0 -0 -0 -0 -0 -0 -0 -0
Wind_Speed_500mb
55 56 59 60 52 56 41 25 13 6 8 9 14 19 24 28 33 38 46 36 36 29 20 12 14 41 30 13 45 54 46 20 23 36 12 10 17 35 35 19 26 20 21 10
49 49 53 56 52 46 54 27 33 11 11 10 10 26 33 25 30 35 17 33 21 26 33 14 19 27 12 5 25 48 29 21 27 22 16 9 21 19 18 10 8 23 19 18
54 48 46 48 47 41 43 17 10 13 14 15 16 27 26 25 15 29 30 24 22 12 14 20 24 21 10 12 7 12 43 17 27 22 3 1 28 18 23 25 20 25 29 19
51 49 43 40 46 40 33 12 8 14 12 24 32 28 29 26 18 9 10 9 25 20 4 18 12 15 11 3 12 4 12 21 14 11 10 9 15 24 30 30 31 29 28 15
46 48 47 40 43 43 22 15 10 22 23 35 31 24 24 20 16 9 5 9 23 24 17 18 4 2 23 9 2 8 5 14 21 26 28 26 30 31 20 22 18 16 18 17
43 44 46 44 38 38 21 29 29 16 18 16 27 20 19 31 26 2 16 1 13 11 17 17 18 7 31 26 29 21 19 22 28 21 19 18 26 33 30 28 23 22 27 22
36 41 39 41 39 33 35 39 35 10 10 17 24 33 38 35 25 21 3 11 7 13 5 7 12 9 21 30 19 16 22 20 12 11 16 22 9 6 4 14 17 22 24 21
38 38 37 39 36 35 36 35 26 12 7 22 31 22 34 37 3 12 7 11 10 13 18 6 9 7 10 14 15 14 6 11 9 9 21 7 16 9 8 15 16 2 7 5
36 36 37 39 38 36 39 37 25 21 9 4 23 32 37 20 8 7 10 20 18 6 2 3 8 8 14 12 10 6 10 8 8 11 7 8 17 8 4 6 11 7 10 15
42 38 41 40 41 39 39 38 25 26 13 20 13 5 9 16 10 5 6 12 4 10 5 6 4 9 7 11 14 20 16 11 13 10 5 3 11 3 7 11 9 18 23 24
45 35 38 43 49 35 37 38 27 24 11 36 25 12 16 18 17 9 9 5 4 6 5 1 4 4 7 9 16 21 11 12 8 7 7 6 7 9 5 14 25 25 25 26
44 38 40 43 47 34 32 36 37 23 21 29 40 39 32 26 22 15 9 2 2 3 4 4 2 4 4 12 9 10 9 5 8 6 5 13 9 14 18 20 31 29 29 27
45 42 40 40 40 37 32 34 30 20 18 30 13 6 8 9 11 18 9 1 7 4 4 5 4 4 5 5 4 9 10 10 7 12 13 14 18 23 25 28 34 29 23 21
39 37 36 44 39 36 29 28 26 19 10 8 7 12 21 13 11 19 26 11 8 4 6 2 2 3 6 4 4 2 7 13 12 10 15 15 16 23 32 36 30 30 29 24
40 31 39 42 37 33 34 36 20 21 15 7 17 27 5 7 6 7 14 14 4 3 4 2 4 4 5 5 3 8 15 8 9 2 15 5 30 33 37 35 33 31 29 26
32 36 41 41 36 33 32 7 9 7 21 7 5 12 14 14 16 23 23 16 9 6 5 5 5 5 8 2 3 3 10 14 4 10 9 13 32 37 34 35 34 29 27 26
35 40 42 37 32 23 9 8 13 4 10 5 5 5 6 11 15 15 16 12 8 2 4 6 4 4 6 4 3 12 8 11 13 8 15 28 35 37 37 38 35 33 30 28
40 36 30 17 13 13 15 23 7 6 8 6 4 3 7 5 7 5 7 5 3 8 4 4 2 4 5 5 4 6 1 2 16 22 8 26 36 41 39 36 34 30 27 25
35 29 14 7 9 9 17 13 9 6 2 6 3 6 3 5 7 5 4 2 3 3 1 1 4 4 7 5 3 9 6 9 24 27 22 28 38 39 37 32 27 26 23 20
30 17 6 4 11 18 8 7 5 5 3 5 3 6 3 6 5 2 1 1 4 3 4 2 4 5 7 8 4 5 15 9 18 28 26 33 39 38 34 27 22 22 22 21
20 15 7 17 16 6 2 2 3 2 1 1 5 9 6 9 5 4 3 2 2 3 5 4 3 3 5 9 18 11 8 25 21 19 26 25 36 37 32 23 22 24 23 22
25 17 19 12 7 3 3 1 3 1 5 4 5 6 4 3 4 1 2 3 3 5 6 3 3 7 2 15 24 20 18 21 22 33 38 36 34 30 26 27 26 24 24 22
10 6 6 7 4 4 8 6 5 3 12 4 3 3 2 2 3 6 1 3 3 3 4 1 4 8 8 29 34 34 28 31 39 43 43 37 34 31 28 29 27 26 23 19
6 9 8 5 1 5 5 7 7 8 6 6 2 4 8 6 1 2 4 3 4 2 1 3 10 15 27 33 39 37 35 39 42 39 39 38 35 33 32 31 28 26 22 18
5 6 6 4 10 13 15 12 7 7 4 4 2 4 2 1 1 3 2 2 2 3 3 6 18 19 32 34 31 36 38 37 38 39 38 37 38 39 38 33 30 26 22 19
5 4 6 10 10 10 10 4 4 2 7 2 1 1 2 4 3 4 6 3 3 3 7 13 21 24 22 29 34 37 36 38 38 36 38 40 38 38 36 32 29 26 23 21
5 4 9 12 12 12 9 11 3 2 2 1 1 4 3 3 4 5 4 4 5 12 13 1 25 31 34 33 35 37 37 37 37 39 39 37 34 33 31 30 26 24 23 22
Wind_Direction_500mb
340 342 343 345 341 340 351 324 296 270 277 254 225 259 288 292 276 251 243 250 269 263 190 168 264 257 194 290 199 200 209 222 195 198 96 318 246 217 200 217 211 237 252 258
337 341 343 348 348 346 337 309 298 290 236 279 335 320 309 293 288 281 273 261 273 273 226 203 199 295 31 343 203 196 172 206 206 202 191 188 224 207 239 262 280 220 227 248
338 336 340 341 341 342 329 297 306 291 262 310 316 324 311 321 263 257 273 271 269 224 213 198 180 188 327 6 189 24 188 170 211 212 122 163 213 224 219 227 232 238 246 241
338 338 336 338 334 339 322 274 273 325 308 324 320 306 295 311 321 264 292 282 270 200 114 211 173 153 285 294 9 94 202 187 197 191 254 250 271 272 234 235 249 253 252 224
337 339 334 329 333 330 309 297 334 338 297 304 300 299 309 326 348 293 260 312 293 189 187 164 159 91 174 220 214 11 322 167 168 192 210 211 218 236 225 220 238 239 253 249
336 338 341 333 330 334 324 314 315 293 294 310 309 314 327 321 318 335 16 77 344 117 103 111 124 197 267 169 157 171 189 165 175 170 184 202 235 236 227 241 233 249 244 243
323 332 340 342 327 326 322 319 316 276 283 296 320 318 304 300 318 308 22 17 100 8 89 135 112 162 133 111 102 173 172 171 161 136 169 219 103 60 309 267 261 254 247 257
317 331 336 338 331 323 319 319 315 282 267 301 297 320 317 292 305 30 21 352 87 64 22 74 83 206 151 87 62 73 192 154 145 171 198 54 159 162 192 207 143 115 257 230
317 319 332 338 329 328 318 319 311 309 294 284 319 313 311 297 351 20 33 29 132 121 69 2 200 163 123 137 114 72 126 158 151 163 189 200 89 115 199 201 146 96 112 121
323 321 328 331 332 328 324 312 315 313 272 282 343 317 288 318 341 112 344 342 220 226 235 188 264 109 100 138 141 161 156 154 175 149 186 170 103 93 171 218 119 117 112 107
334 319 324 323 325 324 325 310 311 292 267 290 284 335 271 321 356 349 140 350 14 329 242 314 9 87 71 102 127 158 152 147 174 160 178 213 138 172 256 104 122 118 105 103
332 329 324 324 332 330 321 313 316 296 280 272 295 282 270 274 280 290 301 329 310 306 337 26 342 85 186 128 139 167 150 129 150 152 107 102 92 72 106 120 121 119 116 108
325 331 331 334 331 329 321 312 321 296 288 296 281 317 318 284 288 239 259 88 359 68 354 358 34 82 265 153 90 125 119 151 129 161 148 131 113 110 114 122 121 113 104 101
324 328 335 335 332 327 321 313 302 287 281 279 288 333 311 295 282 232 226 282 328 61 348 346 112 121 325 86 96 200 51 173 165 125 142 157 155 133 126 124 119 108 106 102
329 328 332 332 331 323 321 320 290 253 245 305 299 314 334 37 51 143 176 218 290 298 236 258 66 85 265 85 250 201 173 167 172 176 135 98 154 140 138 130 123 117 112 101
322 324 328 322 320 326 328 313 33 139 218 280 295 330 340 96 116 108 113 101 77 18 344 23 74 48 297 306 233 9 209 176 128 97 99 103 137 136 133 130 124 117 111 106
325 322 318 321 322 316 303 284 292 283 185 259 280 309 25 101 99 87 84 86 89 78 57 29 16 130 304 273 256 106 150 186 208 185 148 127 139 137 135 130 122 116 108 103
330 329 327 333 355 41 38 6 16 246 186 282 298 353 16 64 67 67 59 72 83 39 113 175 218 171 221 256 216 177 171 0 176 169 149 139 127 133 133 131 128 119 114 110
334 334 332 343 6 12 340 332 14 136 4 313 310 349 78 82 59 72 63 140 91 36 137 163 248 179 230 51 112 174 199 149 137 129 122 133 140 139 138 136 133 126 124 121
348 357 3 354 336 329 350 359 36 8 29 2 326 10 54 22 122 100 230 166 126 167 111 278 252 276 282 232 120 113 160 146 149 140 149 141 138 141 140 134 128 128 128 125
359 344 324 315 332 4 315 339 310 68 215 85 27 40 12 41 66 79 11 11 278 211 92 269 173 226 85 143 163 157 133 160 139 138 137 149 143 140 132 122 125 125 125 125
332 310 312 324 334 302 303 357 140 351 40 55 358 72 63 45 26 96 75 337 254 69 120 258 204 88 340 155 148 143 118 125 124 137 134 134 136 137 132 127 124 125 125 124
342 324 307 326 326 317 357 16 80 63 355 37 30 84 351 202 2 78 299 245 59 160 242 355 64 70 116 141 133 133 130 123 124 125 127 127 125 123 122 119 120 122 121 123
348 335 320 327 0 43 359 347 330 332 297 301 355 47 25 11 291 345 268 54 255 147 197 153 78 92 129 127 138 130 126 130 129 126 126 123 119 115 114 115 117 116 113 117
330 316 321 338 347 303 296 285 262 262 318 173 102 88 24 41 253 246 329 278 224 270 46 76 98 112 130 133 133 131 133 136 131 128 124 122 121 118 113 111 111 108 105 103
310 276 284 310 296 335 350 321 242 144 164 149 84 125 249 221 248 193 214 256 215 111 35 78 123 128 128 135 135 133 134 133 130 127 127 127 126 123 120 116 109 102 97 93
295 283 265 274 287 286 302 326 39 174 185 287 211 242 25 38 240 231 218 274 34 317 304 290 138 132 119 126 130 132 131 130 130 131 131 131 132 129 126 119 112 105 99 92
Wind_Speed_850mb
55 56 59 60 52 56 41 25 13 6 8 9 14 19 24 28 33 38 46 36 36 29 20 12 14 41 30 13 45 54 46 20 23 36 12 10 17 35 35 19 26 20 21 10
49 49 53 56 52 46 54 27 33 11 11 10 10 26 33 25 30 35 17 33 21 26 33 14 19 27 12 5 25 48 29 21 27 22 16 9 21 19 18 10 8 23 19 18
54 48 46 48 47 41 43 17 10 13 14 15 16 27 26 25 15 29 30 24 22 12 14 20 24 21 10 12 7 12 43 17 27 22 3 1 28 18 23 25 20 25 29 19
51 49 43 40 46 40 33 12 8 14 12 24 32 28 29 26 18 9 10 9 25 20 4 18 12 15 11 3 12 4 12 21 14 11 10 9 15 24 30 30 31 29 28 15
46 48 47 40 43 43 22 15 10 22 23 35 31 24 24 20 16 9 5 9 23 24 17 18 4 2 23 9 2 8 5 14 21 26 28 26 30 31 20 22 18 16 18 17
43 44 46 44 38 38 21 29 29 16 18 16 27 20 19 31 26 2 16 1 13 11 17 17 18 7 31 26 29 21 19 22 28 21 19 18 26 33 30 28 23 22 27 22
36 41 39 41 39 33 35 39 35 10 10 17 24 33 38 35 25 21 3 11 7 13 5 7 12 9 21 30 19 16 22 20 12 11 16 22 9 6 4 14 17 22 24 21
38 38 37 39 36 35 36 35 26 12 7 22 31 22 34 37 3 12 7 11 10 13 18 6 9 7 10 14 15 14 6 11 9 9 21 7 16 9 8 15 16 2 7 5
36 36 37 39 38 36 39 37 25 21 9 4 23 32 37 20 8 7 10 20 18 6 2 3 8 8 14 12 10 6 10 8 8 11 7 8 17 8 4 6 11 7 10 15
42 38 41 40 41 39 39 38 25 26 13 20 13 5 9 16 10 5 6 12 4 10 5 6 4 9 7 11 14 20 16 11 13 10 5 3 11 3 7 11 9 18 23 24
45 35 38 43 49 35 37 38 27 24 11 36 25 12 16 18 17 9 9 5 4 6 5 1 4 4 7 9 16 21 11 12 8 7 7 6 7 9 5 14 25 25 25 26
44 38 40 43 47 34 32 36 37 23 21 29 40 39 32 26 22 15 9 2 2 3 4 4 2 4 4 12 9 10 9 5 8 6 5 13 9 14 18 20 31 29 29 27
45 42 40 40 40 37 32 34 30 20 18 30 13 6 8 9 11 18 9 1 7 4 4 5 4 4 5 5 4 9 10 10 7 12 13 14 18 23 25 28 34 29 23 21
39 37 36 44 39 36 29 28 26 19 10 8 7 12 21 13 11 19 26 11 8 4 6 2 2 3 6 4 4 2 7 13 12 10 15 15 16 23 32 36 30 30 29 24
40 31 39 42 37 33 34 36 20 21 15 7 17 27 5 7 6 7 14 14 4 3 4 2 4 4 5 5 3 8 15 8 9 2 15 5 30 33 37 35 33 31 29 26
32 36 41 41 36 33 32 7 9 7 21 7 5 12 14 14 16 23 23 16 9 6 5 5 5 5 8 2 3 3 10 14 4 10 9 13 32 37 34 35 34 29 27 26
35 40 42 37 32 23 9 8 13 4 10 5 5 5 6 11 15 15 16 12 8 2 4 6 4 4 6 4 3 12 8 11 13 8 15 28 35 37 37 38 35 33 30 28
40 36 30 17 13 13 15 23 7 6 8 6 4 3 7 5 7 5 7 5 3 8 4 4 2 4 5 5 4 6 1 2 16 22 8 26 36 41 39 36 34 30 27 25
35 29 14 7 9 9 17 13 9 6 2 6 3 6 3 5 7 5 4 2 3 3 1 1 4 4 7 5 3 9 6 9 24 27 22 28 38 39 37 32 27 26 23 20
30 17 6 4 11 18 8 7 5 5 3 5 3 6 3 6 5 2 1 1 4 3 4 2 4 5 7 8 4 5 15 9 18 28 26 33 39 38 34 27 22 22 22 21
20 15 7 17 16 6 2 2 3 2 1 1 5 9 6 9 5 4 3 2 2 3 5 4 3 3 5 9 18 11 8 25 21 19 26 25 36 37 32 23 22 24 23 22
25 17 19 12 7 3 3 1 3 1 5 4 5 6 4 3 4 1 2 3 3 5 6 3 3 7 2 15 24 20 18 21 22 33 38 36 34 30 26 27 26 24 24 22
10 6 6 7 4 4 8 6 5 3 12 4 3 3 2 2 3 6 1 3 3 3 4 1 4 8 8 29 34 34 28 31 39 43 43 37 34 31 28 29 27 26 23 19
6 9 8 5 1 5 5 7 7 8 6 6 2 4 8 6 1 2 4 3 4 2 1 3 10 15 27 33 39 37 35 39 42 39 39 38 35 33 32 31 28 26 22 18
5 6 6 4 10 13 15 12 7 7 4 4 2 4 2 1 1 3 2 2 2 3 3 6 18 19 32 34 31 36 38 37 38 39 38 37 38 39 38 33 30 26 22 19
5 4 6 10 10 10 10 4 4 2 7 2 1 1 2 4 3 4 6 3 3 3 7 13 21 24 22 29 34 37 36 38 38 36 38 40 38 38 36 32 29 26 23 21
5 4 9 12 12 12 9 11 3 2 2 1 1 4 3 3 4 5 4 4 5 12 13 1 25 31 34 33 35 37 37 37 37 39 39 37 34 33 31 30 26 24 23 22
Wind_Direction_850mb
340 342 343 345 341 340 351 324 296 270 277 254 225 259 288 292 276 251 243 250 269 263 190 168 264 257 194 290 199 200 209 222 195 198 96 318 246 217 200 217 211 237 252 258
337 341 343 348 348 346 337 309 298 290 236 279 335 320 309 293 288 281 273 261 273 273 226 203 199 295 31 343 203 196 172 206 206 202 191 188 224 207 239 262 280 220 227 248
338 336 340 341 341 342 329 297 306 291 262 310 316 324 311 321 263 257 273 271 269 224 213 198 180 188 327 6 189 24 188 170 211 212 122 163 213 224 219 227 232 238 246 241
338 338 336 338 334 339 322 274 273 325 308 324 320 306 295 311 321 264 292 282 270 200 114 211 173 153 285 294 9 94 202 187 197 191 254 250 271 272 234 235 249 253 252 224
337 339 334 329 333 330 309 297 334 338 297 304 300 299 309 326 348 293 260 312 293 189 187 164 159 91 174 220 214 11 322 167 168 192 210 211 218 236 225 220 238 239 253 249
336 338 341 333 330 334 324 314 315 293 294 310 309 314 327 321 318 335 16 77 344 117 103 111 124 197 267 169 157 171 189 165 175 170 184 202 235 236 227 241 233 249 244 243
323 332 340 342 327 326 322 319 316 276 283 296 320 318 304 300 318 308 22 17 100 8 89 135 112 162 133 111 102 173 172 171 161 136 169 219 103 60 309 267 261 254 247 257
317 331 336 338 331 323 319 319 315 282 267 301 297 320 317 292 305 30 21 352 87 64 22 74 83 206 151 87 62 73 192 154 145 171 198 54 159 162 192 207 143 115 257 230
317 319 332 338 329 328 318 319 311 309 294 284 319 313 311 297 351 20 33 29 132 121 69 2 200 163 123 137 114 72 126 158 151 163 189 200 89 115 199 201 146 96 112 121
323 321 328 331 332 328 324 312 315 313 272 282 343 317 288 318 341 112 344 342 220 226 235 188 264 109 100 138 141 161 156 154 175 149 186 170 103 93 171 218 119 117 112 107
334 319 324 323 325 324 325 310 311 292 267 290 284 335 271 321 356 349 140 350 14 329 242 314 9 87 71 102 127 158 152 147 174 160 178 213 138 172 256 104 122 118 105 103
332 329 324 324 332 330 321 313 316 296 280 272 295 282 270 274 280 290 301 329 310 306 337 26 342 85 186 128 139 167 150 129 150 152 107 102 92 72 106 120 121 119 116 108
325 331 331 334 331 329 321 312 321 296 288 296 281 317 318 284 288 239 259 88 359 68 354 358 34 82 265 153 90 125 119 151 129 161 148 131 113 110 114 122 121 113 104 101
324 328 335 335 332 327 321 313 302 287 281 279 288 333 311 295 282 232 226 282 328 61 348 346 112 121 325 86 96 200 51 173 165 125 142 157 155 133 126 124 119 108 106 102
329 328 332 332 331 323 321 320 290 253 245 305 299 314 334 37 51 143 176 218 290 298 236 258 66 85 265 85 250 201 173 167 172 176 135 98 154 140 138 130 123 117 112 101
322 324 328 322 320 326 328 313 33 139 218 280 295 330 340 96 116 108 113 101 77 18 344 23 74 48 297 306 233 9 209 176 128 97 99 103 137 136 133 130 124 117 111 106
325 322 318 321 322 316 303 284 292 283 185 259 280 309 25 101 99 87 84 86 89 78 57 29 16 130 304 273 256 106 150 186 208 185 148 127 139 137 135 130 122 116 108 103
330 329 327 333 355 41 38 6 16 246 186 282 298 353 16 64 67 67 59 72 83 39 113 175 218 171 221 256 216 177 171 0 176 169 149 139 127 133 133 131 128 119 114 110
334 334 332 343 6 12 340 332 14 136 4 313 310 349 78 82 59 72 63 140 91 36 137 163 248 179 230 51 112 174 199 149 137 129 122 133 140 139 138 136 133 126 124 121
348 357 3 354 336 329 350 359 36 8 29 2 326 10 54 22 122 100 230 166 126 167 111 278 252 276 282 232 120 113 160 146 149 140 149 141 138 141 140 134 128 128 128 125
359 344 324 315 332 4 315 339 310 68 215 85 27 40 12 41 66 79 11 11 278 211 92 269 173 226 85 143 163 157 133 160 139 138 137 149 143 140 132 122 125 125 125 125
332 310 312 324 334 302 303 357 140 351 40 55 358 72 63 45 26 96 75 337 254 69 120 258 204 88 340 155 148 143 118 125 124 137 134 134 136 137 132 127 124 125 125 124
342 324 307 326 326 317 357 16 80 63 355 37 30 84 351 202 2 78 299 245 59 160 242 355 64 70 116 141 133 133 130 123 124 125 127 127 125 123 122 119 120 122 121 123
348 335 320 327 0 43 359 347 330 332 297 301 355 47 25 11 291 345 268 54 255 147 197 153 78 92 129 127 138 130 126 130 129 126 126 123 119 115 114 115 117 116 113 117
330 316 321 338 347 303 296 285 262 262 318 173 102 88 24 41 253 246 329 278 224 270 46 76 98 112 130 133 133 131 133 136 131 128 124 122 121 118 113 111 111 108 105 103
310 276 284 310 296 335 350 321 242 144 164 149 84 125 249 221 248 193 214 256 215 111 35 78 123 128 128 135 135 133 134 133 130 127 127 127 126 123 120 116 109 102 97 93
295 283 265 274 287 286 302 326 39 174 185 287 211 242 25 38 240 231 218 274 34 317 304 290 138 132 119 126 130 132 131 130 130 131 131 131 132 129 126 119 112 105 99 92